TRK1 LTAC-RJTT

Flight info

Callsign TRK1
Flight time N/A
Altitude 37000
Route GURBU UL615 SIV UW706 TBN UN61 NOLGA N61 LAGAS M747 SUBUT T916 LEYLA N161 GASBI/K0913F370 N161 RITET/K0920F390 N161 SARIN/K0913S1190 A368 FKG W188 LIKMI W270 BUVEM/K0913S1250 W270 DKO W69 HUR B339 LADIX W34 VAPGU W100 ORAVA W201 UNSEK A326 DONVO G597 AGAVO/N0491F410 Y644 EGOBA Y697 KARBU DCT LANAT Y71 XAC
Aircraft B748/H-SDE3FGHIM1M2RWXY/LB1

Departure

Time 2026-04-30 20:41
Airport Esenboğa International Airport (LTAC)

Arrival

Time N/A
Airport Tokyo Haneda International Airport (RJTT)
Time Latitude Longitude Altitude Speed Heading
2026-04-30 20:14 40.12161 33.00261 3148 ft 0 kts 258°
2026-04-30 20:21 40.12158 33.00245 3148 ft 0 kts 258°
2026-04-30 20:24 40.12159 33.00251 3148 ft 2 kts 258°
2026-04-30 20:24 40.12163 33.00272 3149 ft 2 kts 258°
2026-04-30 20:25 40.12169 33.00313 3152 ft 2 kts 258°
2026-04-30 20:25 40.12175 33.00321 3151 ft 2 kts 301°
2026-04-30 20:26 40.12188 33.00313 3150 ft 0 kts 347°
2026-04-30 20:32 40.12199 33.00310 3149 ft 4 kts 347°
2026-04-30 20:33 40.12241 33.00297 3148 ft 8 kts 347°
2026-04-30 20:33 40.12387 33.00263 3147 ft 12 kts 350°
2026-04-30 20:33 40.12472 33.00244 3144 ft 13 kts 350°
2026-04-30 20:34 40.12588 33.00169 3140 ft 9 kts 286°
2026-04-30 20:34 40.12591 32.99995 3139 ft 8 kts 271°
2026-04-30 20:35 40.12593 32.99907 3140 ft 11 kts 271°
2026-04-30 20:35 40.12594 32.99804 3139 ft 12 kts 270°
2026-04-30 20:35 40.12480 32.99644 3139 ft 15 kts 215°
2026-04-30 20:36 40.12379 32.99554 3133 ft 20 kts 215°
2026-04-30 20:36 40.12267 32.99445 3132 ft 19 kts 216°
2026-04-30 20:36 40.12063 32.99251 3133 ft 16 kts 216°
2026-04-30 20:37 40.11980 32.99171 3137 ft 14 kts 216°
2026-04-30 20:37 40.11893 32.99088 3137 ft 17 kts 216°
2026-04-30 20:37 40.11802 32.99002 3139 ft 15 kts 216°
2026-04-30 20:37 40.11717 32.98922 3136 ft 11 kts 216°
2026-04-30 20:38 40.11682 32.98869 3134 ft 3 kts 256°
2026-04-30 20:38 40.11688 32.98842 3135 ft 4 kts 289°
2026-04-30 20:38 40.11713 32.98790 3137 ft 11 kts 304°
2026-04-30 20:39 40.11833 32.98579 3140 ft 14 kts 307°
2026-04-30 20:39 40.11882 32.98504 3141 ft 9 kts 324°
2026-04-30 20:39 40.11916 32.98502 3141 ft 6 kts 13°
2026-04-30 20:40 40.11937 32.98520 3141 ft 1 kts 35°
2026-04-30 20:40 40.12077 32.98653 3143 ft 56 kts 36°
2026-04-30 20:40 40.12561 32.99112 3139 ft 114 kts 37°
2026-04-30 20:41 40.14286 33.00783 3244 ft 183 kts 38°
2026-04-30 20:41 40.15277 33.01812 3859 ft 179 kts 41°
2026-04-30 20:41 40.16236 33.02897 4413 ft 189 kts 41°
2026-04-30 20:41 40.17292 33.04075 4605 ft 216 kts 39°
2026-04-30 20:42 40.18538 33.05370 4661 ft 239 kts 38°
2026-04-30 20:42 40.19856 33.06781 4905 ft 244 kts 46°
2026-04-30 20:42 40.20630 33.10683 6102 ft 220 kts 107°
2026-04-30 20:43 40.19951 33.12409 6603 ft 214 kts 129°
2026-04-30 20:43 40.18986 33.14025 6618 ft 234 kts 130°
2026-04-30 20:43 40.17970 33.15679 7073 ft 228 kts 131°
2026-04-30 20:44 40.16073 33.18825 8158 ft 212 kts 131°